Weather History for KENW - October, 2012

Change the Weather History Date:

Tuesday, October 16, 2012

  Actual Average Record
Temperature  
Mean Temperature 52 °F -  
Max Temperature 66 °F 58 °F 85 °F (1950)
Min Temperature 41 °F 41 °F 27 °F (2002)
Degree Days  
Heating Degree Days 12    
Growing Degree Days 2 (Base 50)    
Moisture  
Dew Point 44 °F    
Average Humidity 68    
Maximum Humidity 89    
Minimum Humidity 48    
Precipitation  
Precipitation 0.00 in - - ()
Sea Level Pressure  
Sea Level Pressure 29.74 in    
Wind  
Wind Speed 9 mph (SSE)    
Max Wind Speed 20 mph    
Max Gust Speed 23 mph    
Visibility 10 miles    
Events      
Averages and records for this station are not official NWS values.
T = Trace of Precipitation, MM = Missing Value Source: NWS Daily Summary

Daily Weather History Graph

Daily Weather History Graph

Search for Another Location

Airport or City:

Trip Planner

Search our weather history database for the weather conditions in past years. The results will help you decide how hot, cold, wet, or windy it might be!

Date:

Astronomy

Oct. 16, 2012 Rise Set
Actual Time 7:06 AM CDT 6:07 PM CDT
Civil Twilight 6:38 AM CDT 6:35 PM CDT
Nautical Twilight 6:05 AM CDT 7:08 PM CDT
Astronomical Twilight 5:32 AM CDT 7:40 PM CDT
Moon 8:31 AM CDT (10/16) 6:48 PM CDT (10/16)
Length of Visible Light 11h 57m
Length of Day
11h 00m
New Moon, 2% of the Moon is Illuminated
Oct 16
New Moon
Oct 21
First Quarter
Oct 29
Full
Nov 6
Last Quarter
Nov 13
New

Hourly Weather History & Observations

Time (CDT) Temp. Windchill Dew Point Humidity Pressure Visibility Wind Dir Wind Speed Gust Speed Precip Events Conditions
12:53 AM 41.0 °F 39.0 °F 37.0 °F 86% 29.96 in 9.0 mi South 3.5 mph - N/A   Clear
1:53 AM 41.0 °F 37.1 °F 37.9 °F 89% 29.96 in 10.0 mi South 5.8 mph - N/A   Clear
2:53 AM 43.0 °F 39.5 °F 39.0 °F 86% 29.94 in 9.0 mi SSW 5.8 mph - N/A   Clear
3:53 AM 42.1 °F 37.7 °F 39.0 °F 89% 29.92 in 7.0 mi South 6.9 mph - N/A   Clear
4:53 AM 42.1 °F 37.7 °F 39.0 °F 89% 29.91 in 9.0 mi South 6.9 mph - N/A   Clear
5:53 AM 42.1 °F 37.7 °F 37.9 °F 85% 29.91 in 9.0 mi South 6.9 mph - N/A   Clear
7:53 AM 44.1 °F 39.5 °F 39.0 °F 82% 29.89 in 10.0 mi SSE 8.1 mph - N/A   Scattered Clouds
8:53 AM 46.0 °F 41.9 °F 39.9 °F 79% 29.90 in 10.0 mi South 8.1 mph - N/A   Mostly Cloudy
9:53 AM 54.0 °F - 42.1 °F 64% 29.87 in 10.0 mi South 10.4 mph - N/A   Clear
10:53 AM 57.9 °F - 42.1 °F 56% 29.83 in 10.0 mi South 15.0 mph - N/A   Clear
11:53 AM 61.0 °F - 43.0 °F 52% 29.80 in 10.0 mi SSE 19.6 mph 23.0 mph N/A   Clear
12:53 PM 64.0 °F - 44.1 °F 48% 29.74 in 10.0 mi SSE 13.8 mph 21.9 mph N/A   Clear
1:53 PM 64.9 °F - 45.0 °F 48% 29.68 in 10.0 mi SE 16.1 mph - N/A   Clear
2:53 PM 64.9 °F - 45.0 °F 48% 29.64 in 10.0 mi SE 15.0 mph - N/A   Scattered Clouds
3:53 PM 64.0 °F - 46.0 °F 52% 29.61 in 10.0 mi SSE 19.6 mph - N/A   Mostly Cloudy
4:53 PM 64.0 °F - 46.9 °F 54% 29.57 in 10.0 mi South 17.3 mph - N/A   Partly Cloudy
5:53 PM 63.0 °F - 46.9 °F 56% 29.59 in 10.0 mi ESE 4.6 mph - N/A   Clear
6:53 PM 55.0 °F - 46.9 °F 74% 29.59 in 10.0 mi East 8.1 mph - N/A   Clear
7:53 PM 59.0 °F - 48.9 °F 69% 29.57 in 10.0 mi ESE 8.1 mph - N/A   Clear
8:53 PM 59.0 °F - 48.0 °F 67% 29.55 in 10.0 mi South 9.2 mph - N/A   Clear
9:53 PM 61.0 °F - 48.9 °F 64% 29.54 in 10.0 mi South 9.2 mph - N/A   Clear
10:53 PM 63.0 °F - 50.0 °F 63% 29.53 in 10.0 mi South 12.7 mph - N/A   Scattered Clouds
11:53 PM 63.0 °F - 51.1 °F 65% 29.52 in 10.0 mi SSW 12.7 mph - N/A   Clear